STARLINK-5796 (55916 NORAD) Tracking and Keplerian Element Data

This shows tracking and keplerian element data for the satellite.

Feedback or suggestion? Click here.




ElementValue
Catalog55916
NameSTARLINK-5796
Epoch Orbit840
Epoch Day127.25001157
Epoch Year2023
RAAN41.3214
Inclination70.0015
Eccentricity0.0003099
Argument of Perigee272.1686
Mean Anonmoly343.494
Mean Motion15.28718984
Decay Rate-0.00924446
L11 55916U 23037C 23127.25001157 -.00924446 00000+0 -36070-1 0 9994
L22 55916 70.0015 41.3214 0003099 272.1686 343.4940 15.28718984 8401



Live tracking and technical data element details for STARLINK-5796 (NORAD 55916). STARLINK-5796 can be tracked NOW for your location showing map with azimuth and elevation plus other details from your city location.







IsCatalogInMostPopularTable: catalog: 55916, numindb: 8
Update: records affected: 1



GetName: 55916 STARLINK-5796

Hit Count: updated at: Tue, 06 Jun 2023 02:33:55 GMT